QPF
0.00 0.00 0.00 0.00 0.00 0.00 0.00 0.00 0.00 0.00 0.00 0.00 0.00 0.00 0.00 0.00 0.00 0.00 0.00 0.00 0.00 0.00 0.00 0.00 0.00 0.00 0.00 0.03 0.12 0.02 0.00 0.07 0.19 0.14 0.01 0.02 0.03 0.04 0.00 0.00 0.03 0.06 0.08 0.06 0.01 0.01 0.00 0.00 0.00
0.00 0.00 0.00 0.00 0.00 0.00 0.00 0.00 0.00 0.00 0.00 0.00 0.00 0.00 0.00 0.00 0.00 0.00 0.00 0.00 0.00 0.00 0.00 0.00 0.01 0.03 0.06 0.08 0.12 0.09 0.01 0.04 0.24 0.29 0.22 0.15 0.10 0.03 0.02 0.08 0.15 0.16 0.11 0.07 0.08 0.05 0.03 0.03 0.03
0.00 0.00 0.00 0.00 0.00 0.00 0.00 0.00 0.00 0.00 0.00 0.00 0.00 0.00 0.00 0.00 0.00 0.00 0.00 0.00 0.00 0.00 0.00 0.00 0.06 0.13 0.12 0.12 0.04 0.12 0.12 0.10 0.22 0.25 0.16 0.12 0.02 0.06 0.16 0.16 0.08 0.02 0.01 0.01 0.01 0.00 0.02 0.04 0.05
0.00 0.00 0.00 0.00 0.00 0.00 0.00 0.00 0.00 0.00 0.00 0.00 0.00 0.00 0.00 0.00 0.00 0.00 0.00 0.00 0.00 0.00 0.00 0.07 0.14 0.18 0.03 0.03 0.03 0.09 0.20 0.22 0.28 0.18 0.03 0.02 0.12 0.16 0.03 0.00 0.00 0.00 0.00 0.00 0.00 0.00 0.00 0.00 0.00
0.00 0.00 0.00 0.01 0.00 0.00 0.00 0.00 0.00 0.00 0.00 0.00 0.00 0.00 0.00 0.00 0.00 0.00 0.00 0.00 0.00 0.00 0.01 0.17 0.25 0.11 0.15 0.10 0.04 0.12 0.18 0.24 0.18 0.09 0.08 0.11 0.10 0.00 0.00 0.00 0.00 0.01 0.00 0.00 0.00 0.00 0.00 0.00 0.01
0.00 0.00 0.00 0.02 0.01 0.00 0.00 0.00 0.00 0.00 0.00 0.00 0.00 0.00 0.00 0.00 0.00 0.00 0.00 0.00 0.00 0.00 0.01 0.11 0.19 0.14 0.13 0.15 0.13 0.14 0.12 0.11 0.08 0.08 0.09 0.06 0.00 0.00 0.00 0.00 0.00 0.00 0.00 0.00 0.00 0.00 0.00 0.00 0.03
0.00 0.00 0.00 0.01 0.01 0.00 0.00 0.00 0.00 0.00 0.00 0.00 0.00 0.00 0.00 0.00 0.00 0.00 0.00 0.00 0.00 0.00 0.00 0.09 0.21 0.22 0.15 0.20 0.20 0.13 0.10 0.07 0.10 0.11 0.06 0.00 0.00 0.00 0.00 0.00 0.00 0.00 0.00 0.00 0.00 0.00 0.00 0.00 0.01
0.00 0.00 0.00 0.01 0.02 0.01 0.00 0.00 0.00 0.00 0.00 0.00 0.00 0.00 0.00 0.00 0.00 0.00 0.00 0.00 0.00 0.00 0.00 0.02 0.11 0.23 0.12 0.12 0.18 0.04 0.07 0.07 0.06 0.01 0.00 0.00 0.00 0.00 0.00 0.00 0.00 0.00 0.00 0.00 0.00 0.00 0.00 0.00 0.00
0.00 0.00 0.02 0.04 0.06 0.01 0.00 0.00 0.00 0.00 0.00 0.00 0.00 0.00 0.00 0.00 0.00 0.00 0.00 0.00 0.00 0.00 0.00 0.00 0.04 0.07 0.04 0.03 0.06 0.01 0.01 0.00 0.00 0.01 0.00 0.00 0.00 0.00 0.00 0.00 0.00 0.00 0.00 0.00 0.00 0.00 0.00 0.00 0.00
0.00 0.00 0.01 0.03 0.08 0.03 0.00 0.00 0.00 0.00 0.00 0.00 0.00 0.00 0.00 0.00 0.00 0.00 0.00 0.00 0.00 0.00 0.00 0.00 0.00 0.00 0.00 0.00 0.00 0.00 0.00 0.00 0.00 0.00 0.00 0.00 0.00 0.00 0.00 0.00 0.00 0.00 0.00 0.00 0.00 0.00 0.00 0.00 0.00
0.00 0.00 0.00 0.00 0.04 0.00 0.00 0.00 0.00 0.00 0.00 0.00 0.00 0.00 0.00 0.00 0.00 0.00 0.00 0.00 0.00 0.00 0.00 0.00 0.00 0.00 0.00 0.00 0.00 0.00 0.00 0.00 0.00 0.00 0.00 0.00 0.00 0.00 0.00 0.00 0.00 0.00 0.00 0.00 0.00 0.00 0.00 0.00 0.00
0.00 0.00 0.01 0.07 0.11 0.06 0.00 0.00 0.00 0.00 0.00 0.00 0.00 0.00 0.00 0.00 0.00 0.00 0.00 0.00 0.00 0.00 0.00 0.00 0.00 0.00 0.00 0.00 0.00 0.00 0.00 0.00 0.00 0.00 0.00 0.00 0.00 0.00 0.00 0.00 0.00 0.00 0.00 0.00 0.00 0.00 0.00 0.00 0.00
0.00 0.00 0.00 0.02 0.04 0.02 0.01 0.01 0.01 0.00 0.00 0.00 0.00 0.00 0.00 0.00 0.00 0.00 0.00 0.00 0.00 0.00 0.00 0.00 0.00 0.00 0.00 0.00 0.00 0.00 0.00 0.00 0.00 0.00 0.00 0.00 0.00 0.00 0.00 0.00 0.00 0.00 0.00 0.00 0.00 0.00 0.00 0.00 0.00
0.00 0.00 0.00 0.00 0.00 0.00 0.08 0.04 0.04 0.01 0.00 0.00 0.00 0.00 0.00 0.00 0.00 0.00 0.00 0.00 0.00 0.00 0.00 0.00 0.00 0.00 0.00 0.00 0.00 0.00 0.00 0.00 0.00 0.00 0.00 0.00 0.00 0.00 0.00 0.00 0.00 0.00 0.00 0.00 0.00 0.00 0.00 0.00 0.00
0.00 0.00 0.00 0.00 0.01 0.01 0.03 0.04 0.08 0.01 0.00 0.00 0.00 0.00 0.00 0.00 0.00 0.00 0.00 0.00 0.00 0.00 0.00 0.00 0.00 0.00 0.00 0.00 0.00 0.00 0.00 0.00 0.00 0.00 0.00 0.00 0.00 0.00 0.00 0.00 0.00 0.00 0.00 0.00 0.00 0.00 0.00 0.01 0.00
0.00 0.01 0.00 0.00 0.00 0.00 0.00 0.05 0.01 0.04 0.01 0.00 0.00 0.00 0.00 0.00 0.00 0.00 0.00 0.00 0.00 0.00 0.00 0.00 0.00 0.00 0.00 0.00 0.00 0.00 0.00 0.00 0.00 0.00 0.00 0.00 0.00 0.00 0.00 0.00 0.00 0.00 0.00 0.00 0.00 0.00 0.00 0.00 0.00
0.01 0.01 0.00 0.00 0.00 0.00 0.00 0.01 0.00 0.01 0.00 0.00 0.00 0.00 0.01 0.00 0.00 0.00 0.00 0.00 0.00 0.00 0.00 0.00 0.00 0.00 0.00 0.00 0.00 0.00 0.00 0.00 0.00 0.00 0.00 0.00 0.00 0.00 0.00 0.00 0.00 0.00 0.00 0.00 0.00 0.00 0.00 0.00 0.00
0.00 0.00 0.00 0.00 0.00 0.00 0.00 0.00 0.01 0.00 0.01 0.00 0.00 0.00 0.00 0.00 0.00 0.00 0.00 0.00 0.00 0.00 0.00 0.00 0.00 0.00 0.00 0.00 0.00 0.00 0.00 0.00 0.00 0.00 0.00 0.00 0.00 0.00 0.00 0.00 0.00 0.00 0.00 0.00 0.00 0.00 0.00 0.00 0.00
0.00 0.00 0.00 0.00 0.00 0.00 0.00 0.00 0.00 0.00 0.00 0.01 0.00 0.00 0.00 0.00 0.00 0.00 0.00 0.00 0.00 0.00 0.00 0.00 0.00 0.00 0.00 0.00 0.00 0.00 0.00 0.00 0.00 0.00 0.00 0.00 0.00 0.00 0.00 0.00 0.00 0.00 0.00 0.00 0.00 0.00 0.00 0.00 0.01
0.00 0.00 0.00 0.00 0.00 0.00 0.00 0.00 0.00 0.00 0.00 0.00 0.00 0.00 0.00 0.00 0.00 0.00 0.00 0.00 0.00 0.00 0.00 0.00 0.00 0.00 0.00 0.00 0.00 0.00 0.00 0.00 0.00 0.00 0.00 0.00 0.00 0.00 0.00 0.00 0.00 0.00 0.01 0.00 0.00 0.00 0.00 0.00 0.00
0.00 0.00 0.00 0.00 0.00 0.03 0.00 0.00 0.00 0.00 0.00 0.00 0.00 0.00 0.00 0.00 0.00 0.00 0.00 0.00 0.00 0.00 0.00 0.00 0.00 0.00 0.00 0.00 0.00 0.00 0.00 0.00 0.01 0.00 0.00 0.00 0.00 0.00 0.00 0.00 0.00 0.00 0.02 0.02 0.01 0.00 0.00 0.00 0.00
0.00 0.00 0.00 0.00 0.00 0.00 0.00 0.00 0.00 0.00 0.00 0.00 0.00 0.00 0.00 0.00 0.00 0.00 0.00 0.00 0.00 0.00 0.00 0.00 0.00 0.00 0.00 0.00 0.00 0.01 0.02 0.01 0.02 0.00 0.00 0.00 0.00 0.00 0.03 0.00 0.00 0.00 0.01 0.00 0.00 0.00 0.00 0.00 0.01
0.00 0.00 0.00 0.00 0.00 0.00 0.00 0.01 0.00 0.00 0.00 0.00 0.00 0.00 0.00 0.00 0.00 0.00 0.00 0.00 0.00 0.00 0.00 0.00 0.00 0.00 0.00 0.00 0.00 0.01 0.00 0.00 0.00 0.00 0.03 0.01 0.00 0.00 0.02 0.00 0.00 0.00 0.00 0.00 0.00 0.00 0.00 0.00 0.00
0.00 0.00 0.00 0.00 0.00 0.00 0.00 0.00 0.00 0.00 0.00 0.00 0.00 0.00 0.00 0.00 0.00 0.00 0.00 0.00 0.00 0.00 0.00 0.00 0.00 0.00 0.00 0.00 0.00 0.00 0.01 0.02 0.00 0.00 0.01 0.01 0.00 0.00 0.00 0.00 0.00 0.00 0.00 0.00 0.00 0.00 0.00 0.00 0.00
0.00 0.00 0.00 0.00 0.00 0.00 0.00 0.00 0.00 0.00 0.00 0.00 0.00 0.00 0.00 0.00 0.00 0.00 0.00 0.00 0.00 0.00 0.00 0.00 0.00 0.00 0.00 0.00 0.00 0.00 0.00 0.04 0.01 0.01 0.00 0.00 0.00 0.01 0.00 0.00 0.00 0.00 0.00 0.00 0.00 0.04 0.00 0.00 0.01
0.00 0.00 0.00 0.00 0.00 0.00 0.00 0.00 0.00 0.00 0.00 0.00 0.00 0.00 0.00 0.00 0.00 0.00 0.00 0.00 0.00 0.00 0.00 0.00 0.00 0.00 0.00 0.00 0.00 0.00 0.00 0.00 0.00 0.00 0.00 0.00 0.00 0.00 0.00 0.00 0.00 0.01 0.02 0.00 0.01 0.05 0.01 0.01 0.06
0.00 0.00 0.00 0.00 0.00 0.00 0.00 0.00 0.00 0.00 0.00 0.00 0.00 0.00 0.00 0.00 0.00 0.00 0.00 0.00 0.00 0.00 0.00 0.00 0.00 0.00 0.00 0.00 0.00 0.00 0.00 0.00 0.00 0.00 0.00 0.00 0.00 0.00 0.00 0.00 0.00 0.03 0.02 0.00 0.00 0.06 0.06 0.04 0.03
0.00 0.00 0.00 0.00 0.00 0.00 0.00 0.00 0.00 0.00 0.00 0.00 0.00 0.00 0.00 0.00 0.00 0.00 0.00 0.00 0.00 0.00 0.00 0.00 0.00 0.00 0.00 0.00 0.00 0.00 0.00 0.00 0.00 0.00 0.00 0.00 0.00 0.00 0.00 0.00 0.00 0.00 0.00 0.00 0.04 0.04 0.04 0.08 0.03
0.00 0.00 0.00 0.00 0.00 0.00 0.00 0.00 0.00 0.00 0.00 0.00 0.00 0.00 0.00 0.00 0.00 0.00 0.00 0.00 0.00 0.00 0.00 0.00 0.00 0.00 0.00 0.00 0.00 0.00 0.00 0.00 0.00 0.00 0.00 0.01 0.01 0.00 0.00 0.00 0.00 0.00 0.00 0.02 0.11 0.04 0.02 0.05 0.06
0.00 0.00 0.00 0.00 0.00 0.00 0.00 0.00 0.00 0.00 0.00 0.00 0.00 0.00 0.00 0.00 0.00 0.00 0.00 0.00 0.00 0.00 0.00 0.00 0.00 0.00 0.00 0.00 0.00 0.00 0.00 0.00 0.00 0.00 0.00 0.00 0.01 0.00 0.00 0.00 0.00 0.00 0.00 0.02 0.08 0.04 0.01 0.07 0.07
MSLP
1010.54 1010.59 1010.76 1010.78 1010.96 1009.79 1009.73 1009.85 1009.88 1010.25 1010.64 1011.21 1011.47 1011.78 1012.24 1012.79 1012.89 1013.90 1014.43 1014.59 1014.62 1014.80 1015.10 1015.39 1015.71 1015.95 1016.18 1016.33 1016.47 1016.43 1016.54 1016.75 1016.70 1016.68 1016.82 1016.85 1017.07 1017.07 1017.18 1017.24 1017.40 1017.56 1017.49 1017.64 1017.81 1017.81 1018.07 1018.06 1018.13
1010.43 1010.68 1010.70 1010.35 1010.24 1009.46 1009.71 1009.76 1009.94 1010.59 1011.22 1011.55 1011.74 1012.22 1012.56 1013.09 1013.68 1014.14 1014.34 1014.76 1014.77 1015.02 1015.10 1015.33 1015.83 1016.06 1016.27 1016.39 1016.55 1016.59 1016.74 1016.93 1017.01 1016.94 1016.95 1017.02 1017.11 1017.24 1017.39 1017.50 1017.70 1017.70 1017.87 1018.02 1018.15 1018.16 1018.17 1018.28 1018.37
1010.39 1010.37 1010.28 1010.11 1010.00 1009.40 1009.50 1009.84 1010.30 1011.00 1011.38 1011.53 1012.01 1012.52 1013.01 1013.59 1014.10 1014.19 1014.52 1014.81 1014.97 1015.22 1015.40 1015.52 1015.90 1016.11 1016.36 1016.50 1016.69 1016.76 1016.91 1017.18 1017.30 1017.12 1017.12 1017.04 1017.29 1017.63 1017.76 1017.89 1017.84 1017.83 1018.07 1018.14 1018.33 1018.38 1018.42 1018.54 1018.59
1010.13 1010.42 1010.46 1010.07 1009.76 1009.75 1009.67 1010.03 1010.51 1010.97 1011.51 1011.93 1012.25 1012.85 1013.67 1014.08 1014.06 1014.37 1014.78 1014.85 1015.04 1015.20 1015.36 1015.73 1016.00 1016.20 1016.41 1016.66 1016.95 1017.17 1017.32 1017.39 1017.33 1017.10 1017.16 1017.41 1017.62 1017.66 1017.84 1018.04 1018.00 1018.07 1018.17 1018.18 1018.41 1018.34 1018.47 1018.57 1018.66
1010.15 1010.10 1009.98 1009.89 1009.94 1009.77 1009.83 1010.20 1010.62 1010.88 1011.54 1012.13 1012.52 1013.14 1013.80 1014.46 1014.44 1014.65 1014.93 1015.10 1015.11 1015.30 1015.57 1015.86 1016.04 1016.40 1016.68 1017.05 1017.22 1017.45 1017.54 1017.69 1017.34 1017.36 1017.49 1017.74 1017.70 1017.94 1018.10 1018.05 1018.09 1018.15 1018.20 1018.33 1018.45 1018.42 1018.43 1018.51 1018.56
1010.01 1010.34 1010.27 1010.04 1010.24 1010.11 1010.23 1010.47 1010.65 1011.15 1011.80 1012.35 1012.72 1013.17 1014.22 1014.81 1014.70 1014.89 1015.12 1015.28 1015.27 1015.52 1015.92 1016.11 1016.16 1016.59 1016.90 1017.27 1017.48 1017.52 1017.62 1017.56 1017.37 1017.38 1017.58 1017.79 1017.97 1018.15 1018.19 1018.24 1018.24 1018.16 1018.30 1018.42 1018.33 1018.35 1018.44 1018.49 1018.54
1010.11 1010.49 1010.72 1010.58 1010.71 1010.60 1010.67 1010.62 1010.60 1011.20 1011.75 1012.29 1012.86 1013.18 1014.42 1014.75 1015.02 1015.16 1015.34 1015.57 1015.52 1015.73 1015.93 1016.46 1016.52 1016.65 1017.10 1017.35 1017.56 1017.66 1017.56 1017.57 1017.53 1017.60 1017.63 1017.99 1018.11 1018.24 1018.34 1018.38 1018.33 1018.31 1018.30 1018.36 1018.29 1018.31 1018.37 1018.50 1018.51
1010.65 1010.92 1011.25 1011.34 1011.10 1011.46 1011.22 1010.83 1010.98 1011.13 1012.01 1012.50 1012.81 1012.96 1013.90 1014.62 1015.20 1015.41 1015.62 1015.78 1015.90 1015.96 1016.15 1016.63 1016.79 1016.88 1017.14 1017.46 1017.48 1017.62 1017.64 1017.64 1017.71 1017.79 1017.97 1018.23 1018.29 1018.37 1018.39 1018.37 1018.42 1018.24 1018.31 1018.30 1018.15 1018.12 1018.22 1018.32 1018.43
1010.93 1011.16 1011.56 1011.73 1011.87 1011.96 1011.61 1011.27 1011.36 1011.64 1011.97 1012.48 1012.88 1013.15 1013.62 1014.78 1015.31 1015.56 1015.76 1016.01 1016.26 1016.28 1016.38 1016.50 1016.88 1017.14 1017.38 1017.45 1017.60 1017.57 1017.75 1017.78 1017.86 1017.90 1018.23 1018.24 1018.16 1018.15 1018.01 1018.38 1018.33 1018.20 1018.30 1018.23 1018.12 1018.03 1018.08 1018.09 1018.15
1010.85 1011.42 1012.01 1012.35 1012.37 1012.32 1011.97 1011.65 1011.41 1011.70 1012.01 1012.70 1013.32 1013.98 1014.34 1014.92 1015.29 1015.60 1015.79 1015.96 1016.25 1016.50 1016.71 1016.59 1016.74 1017.12 1017.43 1017.41 1017.69 1017.76 1017.91 1017.81 1017.94 1018.08 1018.29 1018.23 1018.37 1018.21 1018.15 1018.35 1018.31 1018.29 1018.27 1018.12 1017.92 1017.91 1017.87 1017.76 1017.70
1011.15 1011.71 1012.53 1013.01 1013.03 1012.84 1012.39 1011.87 1011.56 1011.70 1011.89 1012.38 1013.06 1013.94 1014.45 1014.97 1015.37 1015.61 1015.93 1016.16 1016.35 1016.75 1016.89 1016.98 1017.00 1017.43 1017.47 1017.86 1017.67 1017.97 1018.01 1017.97 1018.05 1018.27 1018.23 1018.41 1018.33 1018.21 1018.20 1018.20 1018.09 1018.09 1018.18 1017.76 1017.73 1017.80 1017.80 1018.10 1018.11
1011.26 1012.08 1012.47 1013.07 1013.51 1013.19 1012.71 1012.30 1011.71 1011.87 1012.09 1012.29 1013.26 1014.10 1014.29 1014.82 1015.37 1015.50 1015.88 1016.24 1016.59 1016.80 1016.99 1017.13 1017.15 1017.39 1017.53 1017.73 1017.76 1018.02 1018.01 1018.06 1017.91 1018.20 1018.26 1018.32 1018.20 1018.25 1018.43 1018.32 1018.37 1018.09 1017.98 1017.88 1017.84 1017.95 1018.06 1017.71 1017.27
1011.43 1012.18 1012.60 1013.08 1013.40 1013.14 1012.90 1012.37 1012.23 1012.25 1012.49 1012.70 1013.52 1014.29 1014.48 1014.72 1015.25 1015.65 1015.89 1016.32 1016.67 1016.84 1017.11 1017.37 1017.44 1017.62 1017.61 1017.91 1018.04 1017.77 1017.92 1017.98 1018.04 1018.16 1018.29 1018.34 1018.36 1018.34 1018.49 1018.63 1018.33 1018.12 1018.02 1017.78 1018.12 1018.15 1018.01 1018.55 1018.76
1011.76 1012.02 1012.64 1013.10 1013.39 1013.30 1012.95 1012.51 1012.41 1012.39 1012.70 1013.01 1013.51 1014.15 1014.60 1014.79 1015.08 1015.58 1015.97 1016.25 1016.57 1016.85 1017.16 1017.48 1017.76 1017.85 1017.85 1017.95 1018.14 1017.84 1018.27 1018.26 1018.30 1018.17 1018.36 1018.59 1018.46 1018.51 1018.60 1018.66 1018.38 1018.23 1018.08 1017.95 1018.21 1018.35 1018.53 1018.72 1018.70
1011.62 1011.94 1012.44 1012.99 1013.25 1013.38 1013.23 1012.71 1012.26 1012.58 1012.78 1013.07 1013.39 1014.01 1014.49 1014.79 1014.95 1015.28 1015.55 1016.08 1016.31 1016.59 1017.19 1017.68 1017.60 1017.81 1018.05 1018.20 1018.26 1018.24 1018.32 1018.12 1018.03 1018.20 1018.46 1018.67 1018.78 1018.73 1018.78 1018.72 1018.51 1018.36 1018.41 1018.29 1018.44 1018.54 1018.71 1018.90 1018.64
1011.23 1011.64 1011.90 1012.68 1012.89 1013.19 1013.34 1012.47 1012.86 1012.91 1012.83 1013.07 1013.39 1013.79 1014.23 1014.47 1014.60 1014.96 1015.46 1015.83 1016.25 1016.54 1017.20 1017.75 1017.56 1017.74 1017.91 1018.05 1017.99 1017.98 1018.01 1017.92 1018.02 1018.22 1018.31 1018.66 1018.90 1018.82 1018.89 1018.77 1018.55 1018.83 1018.59 1018.22 1018.33 1018.53 1018.60 1018.81 1018.85
1011.19 1011.16 1011.54 1012.10 1012.44 1012.65 1013.08 1012.37 1012.65 1013.02 1012.86 1012.97 1013.17 1013.54 1014.04 1014.18 1014.44 1014.67 1015.14 1015.69 1016.02 1016.62 1017.01 1017.45 1017.81 1017.99 1018.10 1018.10 1018.01 1017.79 1017.83 1017.86 1017.85 1018.12 1018.20 1018.57 1018.79 1018.84 1018.89 1018.73 1018.75 1018.85 1018.63 1018.41 1018.54 1018.67 1018.78 1018.65 1018.88
1010.43 1010.82 1011.25 1011.33 1011.81 1012.21 1012.38 1012.30 1012.54 1012.69 1012.87 1013.26 1013.07 1013.32 1013.42 1013.72 1013.81 1014.38 1014.78 1015.38 1015.73 1016.40 1016.93 1017.27 1017.60 1017.96 1018.15 1018.04 1018.00 1017.79 1017.73 1017.71 1017.85 1017.88 1018.11 1018.47 1018.68 1018.88 1018.97 1018.82 1018.79 1018.73 1018.62 1018.64 1018.72 1018.95 1019.01 1018.93 1018.90
1009.95 1010.26 1010.56 1010.89 1011.25 1011.65 1011.73 1011.86 1011.90 1012.33 1012.59 1012.80 1013.07 1013.16 1013.17 1012.98 1013.44 1014.05 1014.57 1015.01 1015.52 1016.03 1016.55 1017.01 1017.47 1017.83 1017.99 1017.98 1017.83 1017.73 1017.53 1017.71 1017.86 1017.78 1018.08 1018.33 1018.56 1018.77 1018.87 1018.68 1018.73 1018.60 1018.62 1018.73 1018.93 1018.91 1018.90 1018.94 1019.26
1009.52 1009.64 1010.11 1010.74 1011.08 1011.43 1011.35 1011.19 1011.05 1011.54 1011.86 1012.20 1012.34 1012.61 1012.53 1012.66 1013.09 1013.52 1014.12 1014.51 1014.91 1015.54 1016.10 1016.50 1017.06 1017.59 1017.85 1017.95 1017.80 1017.70 1017.65 1017.56 1017.64 1017.70 1017.91 1018.20 1018.40 1018.59 1018.63 1018.64 1018.57 1018.72 1018.82 1018.78 1018.89 1018.90 1018.79 1018.93 1019.13
1008.73 1009.01 1009.65 1010.04 1010.90 1011.25 1011.23 1010.48 1010.32 1010.82 1011.40 1011.80 1012.16 1012.09 1012.12 1012.04 1012.19 1012.61 1013.24 1013.81 1014.34 1014.81 1015.53 1016.03 1016.66 1017.24 1017.66 1017.95 1017.93 1017.87 1017.81 1017.73 1017.67 1017.76 1017.91 1018.00 1018.27 1018.48 1018.52 1018.54 1018.57 1018.74 1018.88 1018.82 1018.93 1018.81 1018.71 1018.63 1018.95
1008.04 1008.60 1009.08 1009.68 1010.22 1010.52 1010.98 1010.04 1009.77 1010.16 1010.48 1010.97 1011.15 1011.51 1011.54 1011.54 1011.80 1011.91 1012.33 1012.95 1013.50 1013.95 1014.93 1015.63 1016.30 1016.90 1017.31 1017.74 1017.88 1017.58 1017.38 1017.16 1017.33 1017.51 1017.76 1017.82 1018.09 1018.32 1018.34 1018.34 1018.59 1018.74 1018.66 1018.77 1018.73 1018.70 1018.69 1018.61 1018.47
1008.29 1008.49 1008.86 1009.36 1009.73 1010.18 1010.56 1010.37 1009.47 1009.99 1009.76 1009.69 1010.20 1010.51 1010.88 1010.90 1011.14 1011.62 1012.06 1012.15 1012.56 1013.65 1014.17 1015.01 1015.80 1016.48 1016.79 1017.23 1017.59 1017.61 1017.36 1017.11 1017.30 1017.58 1017.74 1017.88 1017.96 1018.19 1018.19 1018.27 1018.42 1018.46 1018.50 1018.66 1018.67 1018.57 1018.64 1018.54 1018.32
1008.31 1008.67 1009.09 1009.47 1009.65 1009.56 1009.75 1009.75 1008.46 1008.88 1008.87 1009.14 1009.36 1009.70 1010.12 1010.46 1010.84 1011.15 1011.60 1011.96 1012.42 1013.05 1013.78 1014.32 1015.18 1015.81 1016.33 1016.76 1017.13 1017.32 1017.39 1017.18 1017.07 1017.28 1017.34 1017.53 1017.71 1017.92 1017.99 1018.14 1018.33 1018.43 1018.37 1018.49 1018.44 1018.50 1018.59 1018.39 1018.34
1008.03 1007.87 1008.09 1008.60 1008.88 1008.84 1009.76 1009.58 1008.14 1008.40 1008.77 1009.04 1009.09 1009.31 1009.55 1010.03 1010.49 1010.72 1011.05 1011.25 1011.62 1012.31 1013.04 1013.79 1014.48 1015.08 1015.60 1016.17 1016.64 1016.88 1017.08 1017.11 1017.04 1017.10 1017.07 1017.24 1017.44 1017.62 1017.83 1017.94 1018.17 1018.28 1018.28 1018.19 1018.15 1018.19 1018.32 1018.29 1018.23
1007.60 1007.51 1007.55 1007.88 1008.44 1008.59 1009.66 1008.71 1007.81 1008.33 1008.76 1008.88 1009.16 1009.27 1009.51 1009.64 1009.76 1009.93 1010.37 1010.92 1011.41 1011.83 1012.54 1013.17 1013.73 1014.35 1014.99 1015.58 1016.01 1016.54 1016.85 1016.82 1016.98 1017.09 1017.13 1017.06 1017.11 1017.22 1017.37 1017.56 1017.71 1017.86 1018.02 1017.78 1017.87 1018.05 1018.07 1018.19 1018.25
1007.86 1007.91 1008.01 1008.16 1009.22 1008.79 1008.54 1008.42 1007.89 1008.10 1008.41 1008.85 1008.92 1009.20 1009.20 1009.16 1009.26 1009.24 1009.70 1010.27 1010.73 1011.47 1011.80 1012.47 1013.04 1013.60 1014.30 1014.86 1015.52 1016.05 1016.43 1016.67 1016.77 1017.07 1017.11 1016.95 1017.07 1017.03 1017.18 1017.37 1017.56 1017.52 1017.54 1017.56 1017.60 1017.72 1018.03 1018.10 1018.09
1007.57 1008.15 1008.22 1008.29 1008.34 1008.20 1008.22 1008.23 1007.57 1007.74 1007.94 1008.60 1008.98 1008.97 1009.12 1009.12 1009.09 1009.15 1009.27 1009.78 1010.29 1010.85 1011.18 1011.84 1012.51 1013.04 1013.46 1014.23 1014.92 1015.38 1015.82 1016.30 1016.52 1016.76 1016.87 1016.85 1016.86 1016.90 1017.15 1017.40 1017.36 1017.21 1017.29 1017.42 1017.65 1017.62 1017.81 1017.96 1017.97
1008.07 1008.02 1008.47 1008.39 1008.63 1007.93 1007.83 1007.64 1007.52 1007.62 1008.09 1008.56 1008.84 1009.15 1009.15 1009.09 1009.04 1009.08 1009.10 1009.37 1009.74 1010.73 1011.18 1011.60 1012.04 1012.57 1013.18 1013.65 1014.25 1014.97 1015.38 1015.77 1016.14 1016.31 1016.50 1016.59 1016.79 1017.03 1017.10 1017.05 1017.26 1017.30 1017.27 1017.33 1017.44 1017.48 1017.60 1017.66 1017.76
1008.64 1008.49 1008.36 1007.94 1008.74 1008.81 1008.41 1007.76 1007.94 1008.22 1008.54 1008.87 1009.01 1009.24 1009.33 1009.11 1009.02 1008.96 1008.96 1009.27 1009.74 1010.24 1010.88 1011.37 1011.80 1012.19 1012.59 1013.13 1013.73 1014.25 1015.02 1015.46 1015.78 1015.97 1016.13 1016.28 1016.49 1016.78 1016.95 1017.04 1017.08 1017.18 1017.12 1017.06 1017.11 1017.20 1017.18 1017.41 1017.40
Thickness
5789 5789 5790 5781 5763 5768 5750 5754 5766 5755 5754 5760 5762 5755 5751 5747 5747 5737 5754 5756 5756 5756 5755 5755 5754 5753 5754 5753 5753 5754 5755 5756 5758 5758 5759 5760 5758 5758 5756 5757 5757 5755 5754 5753 5751 5752 5749 5748 5747
5790 5788 5783 5773 5756 5750 5748 5764 5756 5756 5755 5760 5758 5752 5747 5739 5748 5747 5750 5753 5753 5752 5753 5753 5753 5752 5753 5752 5752 5752 5753 5754 5755 5756 5758 5759 5759 5757 5757 5756 5754 5755 5753 5753 5749 5749 5749 5747 5747
5791 5789 5772 5761 5753 5749 5749 5762 5758 5757 5760 5757 5749 5754 5746 5739 5745 5748 5753 5752 5751 5750 5750 5751 5751 5752 5752 5751 5751 5751 5751 5752 5753 5754 5756 5759 5758 5756 5754 5753 5754 5755 5754 5753 5750 5750 5748 5748 5746
5787 5779 5774 5756 5748 5759 5760 5761 5762 5757 5758 5757 5753 5738 5745 5750 5748 5752 5751 5750 5751 5750 5750 5749 5749 5751 5750 5749 5747 5747 5749 5751 5752 5754 5757 5756 5756 5756 5755 5753 5754 5755 5755 5754 5751 5752 5751 5749 5747
5786 5776 5760 5752 5753 5763 5768 5768 5765 5757 5753 5749 5750 5735 5736 5744 5751 5751 5750 5749 5749 5749 5748 5748 5749 5748 5748 5746 5745 5745 5747 5749 5752 5755 5756 5756 5756 5754 5753 5755 5756 5756 5755 5754 5754 5755 5753 5752 5750
5771 5768 5750 5745 5751 5762 5767 5769 5765 5756 5752 5747 5743 5740 5735 5744 5746 5748 5748 5748 5748 5748 5745 5746 5746 5745 5745 5745 5745 5744 5747 5751 5755 5756 5756 5755 5754 5753 5754 5755 5757 5757 5756 5756 5758 5757 5755 5754 5751
5766 5758 5740 5749 5748 5754 5759 5772 5763 5756 5750 5743 5749 5735 5735 5740 5744 5746 5746 5745 5746 5746 5745 5743 5745 5745 5744 5744 5740 5742 5749 5752 5754 5755 5754 5753 5753 5753 5755 5755 5756 5757 5757 5758 5759 5759 5757 5753 5750
5768 5760 5743 5746 5747 5740 5759 5766 5768 5762 5746 5756 5754 5737 5732 5742 5743 5744 5744 5743 5744 5744 5744 5742 5744 5744 5743 5743 5742 5744 5748 5751 5752 5753 5753 5752 5752 5754 5755 5757 5757 5759 5760 5760 5760 5761 5758 5755 5751
5774 5751 5737 5740 5740 5743 5760 5756 5766 5767 5753 5751 5751 5748 5749 5745 5743 5740 5739 5738 5739 5741 5742 5742 5743 5743 5741 5742 5743 5746 5748 5752 5752 5753 5752 5752 5754 5757 5760 5759 5760 5761 5761 5761 5762 5762 5759 5756 5752
5763 5747 5739 5744 5745 5744 5755 5757 5759 5754 5750 5741 5741 5744 5745 5743 5741 5736 5735 5735 5736 5737 5738 5742 5743 5742 5741 5743 5745 5748 5749 5752 5752 5753 5753 5753 5755 5758 5761 5760 5762 5762 5762 5764 5764 5763 5760 5757 5752
5760 5744 5744 5741 5745 5748 5751 5755 5764 5752 5744 5746 5742 5740 5742 5739 5738 5738 5737 5736 5737 5736 5736 5739 5741 5741 5742 5742 5746 5747 5749 5750 5751 5752 5754 5754 5756 5759 5760 5762 5763 5764 5764 5765 5765 5763 5760 5753 5749
5753 5752 5750 5742 5738 5743 5746 5755 5757 5755 5750 5757 5749 5747 5745 5738 5737 5739 5738 5737 5735 5736 5737 5738 5740 5740 5741 5741 5744 5746 5749 5749 5752 5752 5754 5756 5757 5759 5760 5761 5763 5764 5765 5766 5765 5762 5759 5758 5756
5753 5749 5750 5746 5736 5745 5753 5751 5751 5751 5754 5757 5749 5745 5744 5742 5741 5740 5741 5738 5737 5736 5736 5737 5737 5737 5740 5740 5743 5748 5750 5750 5753 5753 5754 5756 5757 5759 5759 5760 5763 5765 5765 5767 5762 5761 5760 5753 5748
5754 5753 5747 5745 5742 5744 5741 5750 5752 5754 5756 5752 5748 5744 5743 5743 5743 5741 5738 5737 5737 5736 5734 5736 5734 5734 5738 5740 5743 5747 5748 5750 5751 5753 5753 5754 5757 5758 5759 5760 5763 5764 5765 5766 5762 5760 5758 5754 5752
5757 5745 5748 5743 5741 5739 5741 5741 5746 5755 5756 5750 5748 5745 5744 5744 5746 5743 5742 5738 5739 5737 5734 5733 5736 5736 5738 5739 5742 5745 5748 5750 5752 5753 5752 5753 5755 5757 5758 5759 5762 5763 5763 5764 5760 5759 5756 5754 5754
5749 5749 5736 5741 5745 5743 5740 5735 5743 5749 5753 5749 5749 5746 5744 5745 5748 5748 5744 5741 5739 5738 5734 5733 5738 5737 5738 5739 5742 5746 5749 5751 5752 5752 5753 5752 5753 5757 5757 5758 5761 5760 5762 5765 5761 5760 5758 5755 5754
5741 5734 5735 5736 5749 5745 5738 5740 5748 5750 5752 5749 5751 5749 5746 5748 5749 5751 5748 5743 5742 5738 5738 5737 5737 5737 5737 5738 5742 5747 5751 5752 5753 5755 5755 5754 5754 5756 5757 5759 5760 5760 5761 5763 5761 5760 5757 5757 5755
5734 5735 5737 5738 5746 5745 5739 5740 5745 5751 5744 5741 5750 5749 5749 5749 5752 5754 5751 5748 5745 5742 5740 5740 5741 5740 5739 5741 5743 5748 5751 5754 5756 5758 5758 5756 5756 5756 5756 5758 5758 5760 5762 5762 5761 5758 5757 5756 5756
5750 5745 5741 5747 5754 5746 5744 5744 5747 5750 5749 5747 5743 5746 5748 5755 5758 5755 5754 5752 5748 5746 5743 5742 5741 5741 5741 5742 5745 5749 5752 5755 5757 5759 5758 5757 5758 5757 5756 5758 5758 5759 5761 5762 5762 5760 5758 5756 5754
5750 5746 5743 5746 5751 5748 5747 5747 5758 5755 5752 5750 5748 5748 5748 5756 5757 5757 5756 5755 5752 5750 5748 5747 5745 5743 5743 5744 5748 5751 5753 5756 5757 5759 5759 5759 5760 5759 5758 5758 5759 5759 5760 5763 5762 5761 5759 5758 5758
5753 5748 5743 5747 5745 5748 5743 5746 5755 5758 5756 5755 5753 5757 5758 5758 5761 5762 5761 5759 5757 5754 5752 5752 5749 5747 5746 5746 5748 5749 5752 5754 5757 5759 5761 5761 5761 5760 5758 5758 5759 5759 5759 5761 5761 5762 5761 5758 5758
5746 5758 5755 5745 5742 5732 5744 5731 5753 5758 5755 5758 5759 5757 5759 5761 5764 5767 5767 5765 5763 5761 5758 5755 5752 5750 5748 5747 5748 5750 5752 5754 5758 5760 5761 5762 5761 5760 5758 5759 5759 5759 5760 5761 5762 5763 5762 5761 5759
5747 5757 5753 5748 5743 5738 5732 5728 5754 5750 5752 5762 5765 5766 5764 5769 5770 5766 5763 5771 5772 5766 5763 5760 5756 5753 5753 5752 5750 5750 5753 5759 5761 5760 5760 5760 5761 5759 5760 5760 5760 5760 5760 5760 5761 5762 5761 5763 5763
5756 5748 5743 5739 5735 5724 5732 5735 5752 5753 5762 5764 5771 5773 5771 5770 5771 5771 5770 5773 5771 5771 5766 5765 5758 5756 5756 5756 5754 5753 5753 5757 5761 5759 5760 5761 5762 5762 5762 5761 5760 5759 5760 5761 5762 5762 5762 5764 5765
5750 5748 5726 5719 5720 5724 5725 5724 5752 5763 5764 5765 5768 5770 5776 5775 5772 5771 5769 5773 5774 5772 5770 5767 5763 5759 5760 5758 5756 5756 5755 5757 5758 5760 5761 5761 5762 5763 5763 5762 5761 5761 5761 5763 5764 5765 5765 5766 5765
5748 5752 5730 5700 5709 5728 5720 5724 5753 5762 5765 5768 5767 5770 5770 5773 5777 5776 5774 5773 5772 5772 5772 5769 5766 5763 5762 5759 5758 5758 5758 5759 5761 5762 5762 5764 5764 5765 5764 5763 5762 5762 5763 5765 5765 5766 5767 5766 5765
5741 5737 5747 5724 5709 5716 5730 5738 5759 5762 5761 5761 5764 5764 5767 5771 5774 5777 5777 5775 5773 5769 5772 5773 5769 5766 5765 5762 5759 5758 5759 5758 5759 5759 5761 5764 5764 5765 5764 5763 5764 5764 5765 5766 5766 5767 5766 5766 5766
5753 5747 5731 5726 5700 5699 5719 5719 5739 5751 5757 5757 5755 5760 5763 5766 5770 5773 5776 5775 5774 5771 5774 5773 5773 5768 5767 5766 5762 5761 5760 5760 5761 5760 5761 5764 5765 5765 5764 5762 5765 5766 5765 5765 5765 5767 5768 5765 5767
5740 5737 5726 5731 5718 5715 5709 5722 5753 5755 5755 5752 5755 5755 5759 5763 5766 5769 5773 5775 5775 5770 5770 5769 5770 5769 5766 5767 5765 5761 5761 5762 5762 5761 5762 5764 5764 5764 5765 5765 5764 5764 5765 5766 5766 5767 5767 5766 5766
5733 5730 5734 5726 5708 5709 5712 5725 5747 5747 5748 5747 5749 5750 5754 5760 5764 5768 5771 5772 5769 5767 5767 5767 5767 5767 5767 5767 5765 5763 5761 5760 5759 5759 5761 5763 5764 5763 5764 5765 5765 5765 5765 5769 5768 5767 5769 5766 5765